Content
SEND FEEDBACK

Daily
Averages
Monthly
Summary
Finland

HELSINKI, FINLAND


Home > Europe > Finland
Elevation: 184 feet     Latitude: 60 19N     Longitude: 024 58E

WEATHER
 
SELECT A DAY
Number of Records: 322,112;   Date Range: 7/1/96 - 12/19/14
 
SHARE

PRINT THIS DATA

[ ← Previous Day ]
WEATHER ALMANAC - FEBRUARY 8, 2013
[ Next Day → ]
[ °C ]   °F
Weather ElementAverageHighLow
Temperature25.2 °F28.4 °F (7:20 pm)21 °F (8:00 am)
Dewpoint23.5 °F28.4 °F (11:20 pm)19.4 °F (7:50 am)
Humidity93.2 %100 % (7:20 am)86 % (12:20 pm)
Barometer29.94 in29.99 in (2:00 am)29.92 in (12:50 pm)
Wind Speed10.3 mph13.8 mph (6:20 pm)
Weather ElementAverage
Visibility4.3 mi
Wind DirectionNNE (28.1 °)

Weather ElementTotal
Precipitation---
Heating Degree Days40.3 (Base 65)
Averaged from 52 records on February 8, 2013
WEATHER CONDITIONS BREAKOUT
WIND DIRECTION BREAKOUT
WEATHER BY HOUR - FEBRUARY 8, 2013
[ °C ]   °F
Local TimeTemperatureDewpointHumidityBarometerVisibilityWind DirectionWind SpeedGust SpeedPrecipitationEventsConditions
12:50 AM24.8 °F23.0 °F93 %29.95 in5.0 miNorth (10°)5.8 mphMostly Cloudy
1:20 AM24.8 °F23.0 °F93 %29.95 in5.0 miNNE (20°)5.8 mphMostly Cloudy
1:50 AM24.8 °F23.0 °F93 %29.95 in5.0 miNNE (20°)8.1 mphMostly Cloudy
2:00 AM24.0 °F23.0 °F92 %29.99 in5.0 miNNE (30°)8.9 mphMist
2:20 AM24.8 °F23.0 °F93 %29.95 in5.0 miNNE (20°)6.9 mphMostly Cloudy
2:50 AM24.8 °F23.0 °F93 %29.98 in5.0 miNNE (20°)6.9 mphMostly Cloudy
3:20 AM24.8 °F23.0 °F93 %29.98 in5.0 miNNE (30°)5.8 mphMostly Cloudy
3:50 AM24.8 °F23.0 °F93 %29.98 in6.2 miNNE (20°)5.8 mphMostly Cloudy
4:20 AM24.8 °F23.0 °F93 %29.98 in6.2 miNNE (20°)6.9 mphMostly Cloudy
4:50 AM24.8 °F23.0 °F93 %29.98 in6.2 miNorth (10°)9.2 mphMostly Cloudy
5:20 AM24.8 °F23.0 °F93 %29.98 in6.2 miNorth (10°)6.9 mphMostly Cloudy
5:50 AM23.0 °F21.2 °F93 %29.98 in6.2 miNNE (20°)9.2 mphMostly Cloudy
6:20 AM23.0 °F21.2 °F93 %29.95 in6.2 miNNE (20°)9.2 mphMostly Cloudy
6:50 AM23.0 °F21.2 °F93 %29.95 in6.2 miNNE (20°)10.4 mphMostly Cloudy
7:20 AM21.2 °F21.2 °F100 %29.95 in6.2 miNNE (20°)10.4 mphMostly Cloudy
7:50 AM21.2 °F19.4 °F93 %29.95 in6.2 miNNE (20°)10.4 mphMostly Cloudy
8:00 AM21.0 °F20.0 °F95 %29.99 in6.0 miNNE (30°)13.4 mphOvercast
8:20 AM21.2 °F21.2 °F100 %29.95 in6.2 miNNE (20°)8.1 mphMostly Cloudy
8:50 AM21.2 °F21.2 °F100 %29.95 in6.2 miNorth (10°)10.4 mphMostly Cloudy
9:20 AM23.0 °F21.2 °F93 %29.95 in6.2 miNNE (20°)10.4 mphMostly Cloudy
9:50 AM23.0 °F21.2 °F93 %29.95 in6.2 miNNE (20°)9.2 mphMostly Cloudy
10:20 AM23.0 °F21.2 °F93 %29.95 in6.2 miNNE (20°)10.4 mphMostly Cloudy
10:50 AM23.0 °F21.2 °F93 %29.95 in3.7 miNNE (20°)10.4 mphSnowLight Snow
11:20 AM23.0 °F21.2 °F93 %29.95 in1.1 miNNE (20°)11.5 mphSnowLight Snow
11:50 AM23.0 °F21.2 °F93 %29.95 in0.6 miNNE (20°)12.7 mphSnowSnow
12:20 PM24.8 °F21.2 °F86 %29.95 in0.7 miNNE (30°)12.7 mphSnowSnow
12:50 PM24.8 °F21.2 °F86 %29.92 in0.8 miNNE (20°)12.7 mphSnowSnow
1:20 PM24.8 °F23.0 °F93 %29.95 in0.7 miNNE (30°)12.7 mphSnowSnow
1:50 PM24.8 °F23.0 °F93 %29.95 in0.6 miNNE (30°)11.5 mphSnowSnow
2:00 PM24.0 °F23.0 °F95 %29.96 in1.0 miNE (40°)13.4 mphSnowSnow
2:20 PM24.8 °F23.0 °F93 %29.92 in0.6 miNNE (30°)11.5 mphSnowSnow
2:50 PM24.8 °F23.0 °F93 %29.92 in1.6 miNNE (20°)11.5 mphSnowLight Snow
3:20 PM24.8 °F23.0 °F93 %29.92 in1.2 miNNE (30°)12.7 mphSnowLight Snow
3:50 PM26.6 °F23.0 °F86 %29.92 in1.6 miNNE (30°)12.7 mphSnowLight Snow
4:20 PM26.6 °F24.8 °F93 %29.92 in1.6 miNNE (30°)12.7 mphSnowLight Snow
4:50 PM26.6 °F24.8 °F93 %29.92 in2.5 miNNE (30°)12.7 mphSnowLight Snow
5:20 PM26.6 °F24.8 °F93 %29.92 in1.2 miNNE (30°)11.5 mphSnowLight Snow
5:50 PM26.6 °F24.8 °F93 %29.92 in1.9 miNNE (30°)11.5 mphSnowLight Snow
6:20 PM26.6 °F24.8 °F93 %29.92 in3.1 miNE (40°)13.8 mphSnowLight Snow
6:50 PM26.6 °F24.8 °F93 %29.92 in5.0 miNE (50°)11.5 mphSnowLight Snow
7:20 PM28.4 °F26.6 °F93 %29.92 in6.2 miNE (40°)12.7 mphSnowLight Snow
7:39 PM28.0 °F26.0 °F90 %29.94 in6.0 miNE (50°)13.4 mphSnowLight Snow
7:50 PM28.4 °F26.6 °F93 %29.92 in6.2 miNE (40°)11.5 mphSnowLight Snow
8:00 PM28.0 °F26.0 °F90 %29.94 in6.0 miNE (50°)13.4 mphSnowLight Snow
8:20 PM28.4 °F26.6 °F93 %29.92 in6.2 miNE (40°)10.4 mphSnowLight Snow
8:50 PM28.4 °F26.6 °F93 %29.92 in6.2 miNE (40°)9.2 mphSnowLight Snow
9:20 PM28.4 °F26.6 °F93 %29.92 in4.3 miNE (40°)10.4 mphSnowLight Snow
9:50 PM28.4 °F26.6 °F93 %29.92 in3.7 miNE (40°)9.2 mphSnowLight Snow
10:20 PM28.4 °F26.6 °F93 %29.92 in5.6 miNE (40°)9.2 mphSnowLight Snow
10:50 PM28.4 °F26.6 °F93 %29.92 in6.2 miNE (40°)9.2 mphSnowLight Snow
11:20 PM28.4 °F28.4 °F100 %29.92 in6.2 miNE (40°)9.2 mphSnowLight Snow
11:50 PM28.4 °F28.4 °F100 %29.92 in5.6 miNE (40°)8.1 mphSnowLight Snow
Hourly data recorded from EFHK, located miles away from Helsinki, Finland







STORIES FROM OUR PARTNERS